Location: Pinon Hills
(34.4429°N, 117.6403°W)
Time: 19:20:33
(UTC-07:00)

Uosat F - Visible Passes

Search period start: 20 August 2014 00:00
Search period end: 30 August 2014 00:00
Orbit: 751 x 763 km, 98.7° (Epoch: 19 August)

Date Brightness Start Highest point End Pass type
(mag) Time Alt. Az. Time Alt. Az. Time Alt. Az.
20 Aug 13.3 04:16:40 10° NE 04:20:32 22° E 04:24:22 10° SSE visible
21 Aug 11.0 05:15:22 10° NNE 05:20:23 87° WNW 05:25:22 10° SSW visible
22 Aug 12.5 04:36:38 10° NNE 04:41:13 36° E 04:45:47 10° SSE visible
23 Aug 13.7 03:59:19 10° ENE 04:01:52 14° E 04:04:24 10° SE visible
23 Aug 11.2 05:36:03 10° N 05:40:55 53° WNW 05:45:45 10° SSW visible
24 Aug 11.6 04:56:55 10° NNE 05:01:52 59° ESE 05:06:47 10° S visible
25 Aug 13.2 04:18:41 10° NE 04:22:36 23° E 04:26:31 10° SSE visible
26 Aug 11.0 05:17:25 10° NNE 05:22:27 84° WNW 05:27:26 10° SSW visible
27 Aug 12.4 04:38:40 10° NNE 04:43:18 37° E 04:47:54 10° SSE visible
28 Aug 13.7 04:01:15 10° ENE 04:03:56 15° E 04:06:37 10° SE visible
28 Aug 11.3 05:38:07 10° N 05:42:58 51° WNW 05:47:48 10° SSW visible
29 Aug 11.5 04:58:58 10° NNE 05:03:55 62° ESE 05:08:52 10° S visible
